Flag for USA

Past Weather in 42°08'05"N, 71°03'36"W, USA — Yesterday and Last 2 Weeks

Now
69 °F

Cloudy.


Feels Like: 69 °F
Forecast: 70 / 67 °F
Wind: 18 mph from Northeast

Location: Logan International Airport
Current Time: Aug 15, 2020 at 4:48:06 pm
Latest Report: Aug 15, 2020 at 3:54 pm
Visibility: 10 mi
Pressure30.09 "Hg
Humidity: 70%
Dew Point: 59 °F
Location of 42°08'05"N, 71°03'36"WLocation

Past Weather in 42°08'05"N, 71°03'36"W — Graph

°F

42°08'05"N, 71°03'36"W Temperature Yesterday

Maximum temperature yesterday: 79 °F (at 9:54 am)
Minimum temperature yesterday: 68 °F (at 12:54 am)
Average temperature yesterday: 73 °F

High & Low Weather Summary for the Past Weeks

 TemperatureHumidityPressure
High93 °F (Aug 10, 3:54 pm)91% (Aug 2, 6:54 am)30.20 "Hg (Aug 2, 6:54 am)
Low66 °F (Aug 7, 8:54 pm)35% (Aug 3, 2:54 pm)29.73 "Hg (Aug 4, 5:30 pm)
Average77 °F66%30.01 "Hg
* Reported Jul 31 2:54 pm — Aug 15 2:54 pm, 42°08'05"N, 71°03'36"W. Weather by CustomWeather, © 2020

Note: Actual official high and low records may vary slightly from our data, if they occured in-between our weather recording intervals... More about our weather records

42°08'05"N, 71°03'36"W Weather History for the Previous 24 Hours

Scroll right to see more
 ConditionsComfort  
Time TempWeatherWind HumidityBarometerVisibility
2:54 pm
Sat, Aug 15
69 °FMostly cloudy.15 mph73%30.09 "Hg10 mi
1:54 pm69 °FOvercast.18 mph73%30.10 "Hg10 mi
12:54 pm68 °FMostly cloudy.18 mph78%30.09 "Hg10 mi
11:54 am68 °FMostly cloudy.20 mph78%30.09 "Hg10 mi
10:54 am68 °FMostly cloudy.22 mph78%30.09 "Hg10 mi
9:54 am67 °FOvercast.16 mph85%30.08 "Hg10 mi
8:54 am67 °FOvercast.17 mph85%30.06 "Hg10 mi
7:54 am68 °FOvercast.20 mph82%30.04 "Hg10 mi
6:54 am67 °FPartly sunny.23 mph85%30.02 "Hg10 mi
6:02 am67 °FPartly sunny.17 mph85%30.01 "Hg10 mi
5:54 am66 °FScattered clouds.15 mph87%30.01 "Hg10 mi
4:54 am68 °FPassing clouds.14 mph73%29.98 "Hg10 mi
3:54 am68 °FClear.14 mph68%29.99 "Hg10 mi
2:54 am69 °FClear.10 mph68%29.99 "Hg10 mi
1:54 am69 °FClear.9 mph68%29.98 "Hg10 mi
12:54 am69 °FPassing clouds.9 mph73%30.00 "Hg10 mi
11:54 pm
Fri, Aug 14
70 °FPassing clouds.9 mph68%30.01 "Hg10 mi
10:54 pm71 °FPassing clouds.9 mph66%30.01 "Hg10 mi
9:54 pm70 °FPassing clouds.8 mph71%30.02 "Hg10 mi
8:54 pm69 °FPassing clouds.8 mph79%30.02 "Hg10 mi
7:54 pm69 °FPassing clouds.5 mph79%30.02 "Hg10 mi
6:54 pm71 °FBroken clouds.10 mph71%30.02 "Hg10 mi
5:54 pm73 °FBroken clouds.10 mph64%30.03 "Hg10 mi
4:54 pm73 °FBroken clouds.15 mph64%30.03 "Hg10 mi
Weather by CustomWeather, © 2020

See weather overview